Location: Sunny Point
(33.0946°N, 85.0574°W)
Time: 02:51:10
(UTC+00:00)

Tiangong - Visible Passes

Search period start: 07 December 2022 00:00
Search period end: 17 December 2022 00:00
Orbit: 386 x 393 km, 41.5° (Epoch: 06 December)

Date Brightness Start Highest point End Pass type
(mag) Time Alt. Az. Time Alt. Az. Time Alt. Az.
08 Dec 0.5 00:30:54 10° NW 00:31:42 16° NW 00:31:42 16° NW visible
08 Dec -0.8 23:32:49 10° NW 23:35:34 26° NNE 23:36:30 22° NE visible
10 Dec -1.5 00:11:16 10° WNW 00:13:44 47° NW 00:13:44 47° NW visible
10 Dec -1.5 23:13:04 10° NW 23:16:07 39° NNE 23:18:48 12° E visible
11 Dec 0.9 00:50:08 10° W 00:51:08 17° W 00:51:08 17° W visible
11 Dec -1.6 23:51:35 10° WNW 23:54:44 58° SSW 23:56:24 24° SE visible
13 Dec 0.8 00:31:14 10° WSW 00:32:59 14° SW 00:34:20 11° SSW visible
13 Dec 0.1 23:32:00 10° W 23:34:44 26° SW 23:37:27 10° SSE visible
15 Dec 1.2 23:13:01 10° WSW 23:14:29 13° SW 23:15:57 10° SSW visible
